Terminal Aerodrome Forecast
Issued by NWS Corpus Christi, TX

Home | Current Version | Previous Version | Text Only | Print | Product List | Glossary On
Versions: 1 2 3 4 5 6 7 8 9 10 11 12
399
FTUS44 KCRP 091120
TAFVCT
TAF
KVCT 091120Z 0912/1012 28006KT P6SM SKC
     FM091800 32008G13KT P6SM SKC
     FM100000 VRB04KT P6SM SKC=

USA.gov is the U.S. government's official web portal to all federal, state and local government web resources and services.